Weather History for Ord, NE

Change the Weather History Date:

Monday, November 19, 2012

  Actual Average Record
Temperature  
Mean Temperature 44 °F 35 °F  
Max Temperature 62 °F 47 °F 73 °F (2007)
Min Temperature 25 °F 22 °F 15 °F (2011)
Degree Days  
Heating Degree Days 21    
Month to date heating degree days 499  
Since 1 July heating degree days 1190  
Cooling Degree Days 0    
Month to date cooling degree days 0  
Year to date cooling degree days 1220  
Moisture  
Dew Point 29 °F    
Average Humidity 66    
Maximum Humidity 100    
Minimum Humidity 32    
Precipitation  
Precipitation 0.00 in 0.03 in 1.85 in (1930)
Month to date precipitation 0.05 0.75  
Year to date precipitation 11.42 24.03  
Sea Level Pressure  
Sea Level Pressure 30.10 in    
Wind  
Wind Speed 7 mph (NW)    
Max Wind Speed 24 mph    
Max Gust Speed 28 mph    
Visibility 9 miles    
Events      
T = Trace of Precipitation, MM = Missing Value Source: NWS Daily Summary

Daily Weather History Graph

Daily Weather History Graph

Search for Another Location

Airport:

Trip Planner

Search our weather history database for the weather conditions in past years. The results will help you decide how hot, cold, wet, or windy it might be!

Date:

Astronomy

Nov. 19, 2012 Rise Set
Actual Time 7:30 AM CST 5:12 PM CST
Civil Twilight 7:00 AM CST 5:42 PM CST
Nautical Twilight 6:26 AM CST 6:16 PM CST
Astronomical Twilight 5:53 AM CST 6:49 PM CST
Moon 12:32 PM CST (11/19) 11:43 PM CST (11/19)
Length of Visible Light 10h 42m
Length of Day
9h 41m
Waxing Crescent, 41% of the Moon is Illuminated
Nov 19
Waxing Crescent
Nov 20
First Quarter
Nov 28
Full
Dec 6
Last Quarter
Dec 13
New

Hourly Weather History & Observations

Time (CST) Temp. Windchill Dew Point Humidity Pressure Visibility Wind Dir Wind Speed Gust Speed Precip Events Conditions
12:53 AM 30.9 °F - 28.9 °F 92% 29.98 in 9.0 mi Calm Calm - N/A   Clear
1:53 AM 28.9 °F - 27.0 °F 92% 29.97 in 6.0 mi Calm Calm - N/A   Clear
2:53 AM 27.0 °F - 25.0 °F 92% 29.99 in 5.0 mi Calm Calm - N/A   Clear
3:53 AM 25.0 °F 19.3 °F 23.0 °F 92% 30.00 in 7.0 mi North 4.6 mph - N/A   Clear
4:53 AM 27.0 °F - 26.1 °F 96% 30.00 in 7.0 mi Calm Calm - N/A   Clear
5:53 AM 30.9 °F 26.2 °F 28.0 °F 89% 30.01 in 10.0 mi NW 4.6 mph - N/A   Clear
6:53 AM 43.0 °F 35.7 °F 34.0 °F 71% 30.03 in 10.0 mi NW 15.0 mph - N/A   Clear
7:53 AM 42.1 °F 35.2 °F 34.0 °F 73% 30.06 in 10.0 mi NW 12.7 mph - N/A   Clear
8:53 AM 46.0 °F 43.1 °F 34.0 °F 63% 30.10 in 10.0 mi WNW 5.8 mph - N/A   Clear
9:53 AM 46.9 °F - 34.0 °F 61% 30.12 in 10.0 mi NW 21.9 mph - N/A   Clear
10:53 AM 52.0 °F - 34.0 °F 50% 30.13 in 10.0 mi NW 15.0 mph - N/A   Clear
11:53 AM 57.0 °F - 34.0 °F 42% 30.12 in 10.0 mi NW 12.7 mph - N/A   Clear
12:53 PM 60.1 °F - 33.1 °F 36% 30.11 in 10.0 mi WNW 12.7 mph - N/A   Clear
1:53 PM 62.1 °F - 33.1 °F 34% 30.10 in 10.0 mi NW 15.0 mph 20.7 mph N/A   Clear
2:53 PM 62.1 °F - 32.0 °F 32% 30.09 in 10.0 mi NW 11.5 mph - N/A   Clear
3:53 PM 61.0 °F - 32.0 °F 34% 30.11 in 10.0 mi NW 12.7 mph - N/A   Clear
4:53 PM 54.0 °F - 30.0 °F 40% 30.14 in 10.0 mi WNW 4.6 mph - N/A   Clear
5:53 PM 45.0 °F 43.5 °F 28.0 °F 52% 30.17 in 10.0 mi NW 3.5 mph - N/A   Clear
6:53 PM 43.0 °F 41.3 °F 28.0 °F 56% 30.18 in 10.0 mi WNW 3.5 mph - N/A   Clear
7:53 PM 36.0 °F 33.3 °F 26.1 °F 67% 30.21 in 10.0 mi NNW 3.5 mph - N/A   Clear
8:53 PM 37.0 °F 30.4 °F 27.0 °F 67% 30.22 in 10.0 mi WNW 9.2 mph - N/A   Clear
9:53 PM 35.1 °F - 26.1 °F 70% 30.21 in 10.0 mi Calm Calm - N/A   Clear
10:53 PM 33.1 °F - 25.0 °F 72% 30.20 in 10.0 mi Calm Calm - N/A   Clear
11:53 PM 27.0 °F - 21.9 °F 81% 30.22 in 10.0 mi Calm Calm - N/A   Clear